MICROMAS-2A (43131 NORAD) Tracking and Keplerian Element Data

This shows tracking and keplerian element data for the satellite.

Feedback or suggestion? Click here.




ElementValue
Catalog43131
NameMICROMAS-2A
Epoch Orbit26221
Epoch Day270.15534847
Epoch Year2022
RAAN349.9349
Inclination97.3688
Eccentricity0.0005043
Argument of Perigee351.7025
Mean Anonmoly8.4137
Mean Motion15.40634236
Decay Rate0.00035699
L11 43131U 18004W 22270.15534847 .00035699 00000+0 87508-3 0 9997
L22 43131 97.3688 349.9349 0005043 351.7025 8.4137 15.40634236262211

Live tracking and technical data element details for MICROMAS-2A (NORAD 43131). MICROMAS-2A can be tracked NOW for your location showing map with azimuth and elevation plus other details from your city location.

Track the satellite on the map from your city or location and see movement details for azimuth, elevation, latitude, longitude, range, height, and movement on the map or in text.







IsCatalogInMostPopularTable: catalog: 43131, numindb: 760
Update: records affected: 1



GetName: 43131 MICROMAS-2A

Hit Count: updated at: Fri, 30 Sep 2022 02:59:01 GMT